Regional Weather Roundup
Issued by NWS Little Rock, AR

Home | Current Version | Previous Version | Graphics & Text | Print | Product List | Glossary On
Versions: 1 2 3 4 5 6 7 8 9 10 11 12 13 14 15 16 17 18 19 20 21 22 23 24 25 26 27 28 29 30 31 32 33 34 35 36 37 38 39 40 41 42 43 44 45 46 47 48 49 50
000
ASUS44 KLZK 280205
RWRLZK

WEATHER ROUNDUP FOR ARKANSAS
NATIONAL WEATHER SERVICE LITTLE ROCK AR
900 PM CDT FRI MAR 27 2015

NOTE: "FAIR" INDICATES FEW OR NO CLOUDS BELOW 12,000 FEET WITH NO
SIGNIFICANT WEATHER AND/OR OBSTRUCTIONS TO VISIBILITY.

ARZ001-003-010-029-280300-
NORTHWEST ARKANSAS

CITY           SKY/WX    TMP DP  RH WIND       PRES   REMARKS
FAYETTEVILLE   CLOUDY    45  26  47 N10       30.16R
FORT SMITH     CLOUDY    52  25  35 N7        30.16R
HARRISON       CLOUDY    42  24  49 NW5       30.15R
BENTONVILLE    CLOUDY    45  25  45 NW8       30.16R
ROGERS         CLOUDY    44  24  45 N6        30.17R
SILOAM SPGS    CLOUDY    45  25  45 N7        30.18R
HIGHFILL       CLOUDY    45  25  45 NW6       30.16R
SPRINGDALE     CLOUDY    45  25  45 NW9       30.17R
$$

ARZ004-005-016-280300-
NORTH CENTRAL ARKANSAS

CITY           SKY/WX    TMP DP  RH WIND       PRES   REMARKS
BATESVILLE     PTCLDY    43  25  49 CALM      30.17R
FLIPPIN        PTCLDY    45  23  42 NW5       30.16R
MTN HOME       MOCLDY    41  23  48 CALM      30.15R
$$

ARZ040-041-280300-
WEST CENTRAL ARKANSAS

CITY           SKY/WX    TMP DP  RH WIND       PRES   REMARKS
MENA           MOCLDY    50  32  50 S5        30.15R
MOUNT IDA      PTCLDY    45  31  58 CALM      30.12R
$$

ARZ009-017-025-026-028-280300-
NORTHEAST ARKANSAS

CITY           SKY/WX    TMP DP  RH WIND       PRES   REMARKS
CORNING          N/A     39  30  70 E6        30.18R
JONESBORO      PTCLDY    38  33  82 NE8       30.17R
NEWPORT        PTCLDY    43  29  58 N8        30.19R
BLYTHEVILLE    CLEAR     36  29  75 NE8       30.19R
$$

ARZ022-023-033-042-044-280300-
CENTRAL ARKANSAS

CITY           SKY/WX    TMP DP  RH WIND       PRES   REMARKS
LITTLE ROCK    CLOUDY    48  28  46 NE6       30.15R
N LITTLE ROCK  CLOUDY    46  31  56 NE6       30.15R
JACKSONVILLE   MOCLDY    44  29  57 NE2       30.15R
SEARCY         PTCLDY    44  29  55 N6        30.19R
HOT SPRINGS    PTCLDY    46  32  58 CALM      30.14R
RUSSELLVILLE   PTCLDY    43  32  65 CALM      30.15R
CLINTON        FAIR      41  34  75 CALM      30.18R
$$

ARZ036-280300-
EAST ARKANSAS

CITY           SKY/WX    TMP DP  RH WIND       PRES   REMARKS
WEST MEMPHIS   CLEAR     41  32  70 NE7       30.17R
$$

ARZ050-053-066-070-073-280300-
SOUTHWEST ARKANSAS

CITY           SKY/WX    TMP DP  RH WIND       PRES   REMARKS
ARKADELPHIA    FAIR      49  45  86 CALM      30.16R
CAMDEN         PTCLDY    48  37  66 CALM      30.15R
TEXARKANA      MOCLDY    53  32  44 N6        30.15R
EL DORADO      PTCLDY    49  38  65 N6        30.14R
DE QUEEN       CLOUDY    50  36  58 CALM      30.15R
$$

ARZ056-057-069-280300-
SOUTHEAST ARKANSAS

CITY           SKY/WX    TMP DP  RH WIND       PRES   REMARKS
PINE BLUFF     PTCLDY    47  35  63 CALM      30.16R
STUTTGART      PTCLDY    45  34  65 N8        30.16R
MONTICELLO     PTCLDY    46  39  76 CALM      30.15R

$$




USA.gov is the U.S. government's official web portal to all federal, state and local government web resources and services.